This demonstration page uses our WeatherBlox Daily Observations layout. Learn more.

39.92423, -83.80882

Hourly Observations for May 18, 2015

Temp ( °F °C ) Dew Point ( °F °C ) Humidity (%) Winds ( mph kmh ) Pressure ( in mb ) Visibility ( mi km ) Precip ( " mm )
12:56 am 00:56 Clear with Mist and Fog 72 22.2 69 20.5 90 90 S 9 15 30.09 1019 6 9.65604 0 0
1:56 am 01:56 Clear with Mist and Fog 72 22.2 69 20.5 90 90 SSW 10 17 30.09 1019 6 9.65604 0 0
2:56 am 02:56 Clear with Mist and Fog 71 21.6 69 20.5 93 93 SW 8 13 30.09 1019 6 9.65604 0 0
3:56 am 03:56 Clear with Mist and Fog 71 21.6 68 20 91 91 SSW 7 11 30.09 1019 6 9.65604 0 0
4:56 am 04:56 Clear with Mist and Fog 71 21.6 67 19.4 87 87 SSW 9 15 30.09 1019 6 9.65604 0 0
5:56 am 05:56 Mostly Cloudy with Mist and Fog 70 21.1 67 19.4 90 90 SW 7 11 30.09 1019 6 9.65604 0 0
6:56 am 06:56 Cloudy with Mist and Fog 71 21.6 67 19.4 87 87 WSW 12 19 30.1 1019 6 9.65604 0 0
7:56 am 07:56 Mostly Cloudy with Haze 72 22.2 67 19.4 84 84 SW 13 20 30.11 1020 5 8.0467 0 0
8:26 am 08:26 Hazy 72 22 66 19 83 83 SW 10 17 30.09 1019 5 8.0467 0 0
8:33 am 08:33 Mostly Cloudy with Mist and Fog 72 22 68 20 88 88 SW 10 17 30.12 1020 5 8.0467 0 0
8:56 am 08:56 Cloudy with Haze 73 22.7 68 20 85 85 SW 10 17 30.11 1020 5 8.0467 0 0
9:56 am 09:56 Mostly Cloudy with Haze 74 23.3 67 19.4 79 79 WSW 12 19 30.12 1020 5 8.0467 0 0
10:06 am 10:06 Mostly Cloudy with Haze 73 23 66 19 78 78 WSW 10 17 30.12 1020 5 8.0467 0 0
10:56 am 10:56 Mostly Cloudy with Haze 74 23.3 67 19.4 79 79 WSW 12 19 30.12 1020 5 8.0467 0 0
11:30 am 11:30 Cloudy with Haze 73 23 66 19 78 78 SW 9 15 30.12 1020 5 8.0467 0 0
11:56 am 11:56 Cloudy with Haze 75 23.8 68 20 79 79 SW 12 19 30.13 1020 5 8.0467 0 0
12:36 pm 12:36 Cloudy with Rain 73 23 70 21 89 89 SSW 8 13 30.12 1020 1.75 2.816345 0.01 0.254
12:44 pm 12:44 Cloudy with Mist and Fog 72 22 70 21 94 94 SW 8 13 30.12 1020 1.5 2.41401 0.02 0.508
12:49 pm 12:49 Cloudy with Mist and Fog 72 22 70 21 94 94 SW 8 13 30.12 1020 3 4.82802 0.02 0.508
12:56 pm 12:56 Mostly Cloudy with Mist and Fog 72 22.2 70 21.1 94 94 SW 7 11 30.12 1020 4 6.43736 0.02 0.508
1:56 pm 13:56 Hazy 76 24.4 69 20.5 79 79 SSW 10 17 30.1 1019 4 6.43736 0 0
2:56 pm 14:56 Mostly Cloudy with Haze 77 25 69 20.5 76 76 SSW 13 20 30.09 1019 5 8.0467 0 0
3:33 pm 15:33 Cloudy with Rain 72 22 70 21 94 94 WSW 15 24 30.09 1019 1.75 2.816345 0.02 0.508
3:37 pm 15:37 Cloudy with Heavy Rain 72 22 70 21 94 94 SW 12 19 30.09 1019 1 1.60934 0.05 1.27
3:39 pm 15:39 Mostly Cloudy with Heavy Rain 72 22 70 21 94 94 SW 12 19 30.09 1019 1 1.60934 0.07 1.778
3:46 pm 15:46 Mostly Cloudy with Light Rain 70 21 70 21 100 100 SW 13 20 30.09 1019 1.25 2.011675 0.08 2.032
3:56 pm 15:56 Mostly Cloudy with Light Rain 71 21.6 70 21.1 97 97 SW 9 15 30.09 1019 2.5 4.02335 0.09 2.286
4:39 pm 16:39 Partly Cloudy with Light Rain 72 22 72 22 100 100 SSW 8 13 30.09 1019 4 6.43736 0.02 0.508
4:56 pm 16:56 Partly Cloudy with Mist and Fog 71 21.6 71 21.6 100 100 SW 8 13 30.09 1019 4 6.43736 0.02 0.508
5:56 pm 17:56 Sunny with Mist and Fog 72 22.2 71 21.6 96 96 SSW 9 15 30.07 1018 3 4.82802 0 0.0254
6:56 pm 18:56 Partly Cloudy with Mist and Fog 73 22.7 71 21.6 94 94 SW 9 15 30.05 1018 4 6.43736 0 0
7:56 pm 19:56 Sunny with Mist and Fog 73 22.7 71 21.6 94 94 SW 8 13 30.04 1017 4 6.43736 0 0
8:56 pm 20:56 Clear with Mist and Fog 71 21.6 70 21.1 97 97 SSW 8 13 30.05 1018 4 6.43736 0 0
9:56 pm 21:56 Clear with Mist and Fog 69 20.5 69 20.5 100 100 SW 8 13 30.06 1018 4 6.43736 0 0
10:56 pm 22:56 Clear with Mist and Fog 69 20.5 69 20.5 100 100 SW 10 17 30.07 1018 4 6.43736 0 0
11:56 pm 23:56 Clear with Mist and Fog 68 20 68 20 100 100 SSW 10 17 30.06 1018 3 4.82802 0 0

Powered by AerisWeather